Regional Weather Roundup
Issued by NWS

Home | Current Version | Previous Version | Graphics & Text | Print | Product List | Glossary On
Versions: 1 2 3 4 5 6 7 8 9 10 11 12 13 14 15 16 17 18 19 20 21 22 23 24 25 26 27 28 29 30 31 32 33 34 35 36 37 38 39 40 41 42 43 44 45 46 47 48
000
ASUS45 KBOU 271907
RWRCO

WEATHER ROUNDUP FOR COLORADO
NATIONAL WEATHER SERVICE DENVER/BOULDER CO
1200 PM MST SAT DEC 27 2014

NOTE: "FAIR" INDICATES FEW OR NO CLOUDS BELOW 12000 FEET WITH NO
SIGNIFICANT WEATHER AND/OR OBSTRUCTIONS TO VISIBILITY.

COZ001>005-013-030-031-272000-
...NORTHWEST COLORADO...

CITY           SKY/WX    TMP DP  RH WIND       PRES   REMARKS
CRAIG          SUNNY     12   8  84 CALM      30.25F
HAYDEN         PTSUNNY   12   7  79 E3        30.22F
MEEKER         SUNNY     16   7  67 CALM      30.23F
MOUNT WERNER   NOT AVBL
STEAMBOAT SPGS PTSUNNY   14   7  74 CALM      30.20F
WALDEN         SUNNY     10   5  79 S14G20    30.08F WCI  -5
$$

COZ006>008-011-272000-
...WEST CENTRAL VALLEYS...

CITY           SKY/WX    TMP DP  RH WIND       PRES   REMARKS
GRAND JUNCTION SUNNY     24  13  62 CALM      30.32F
MONTROSE       SUNNY     23   9  55 CALM      30.29F
EAGLE          MOSUNNY   28  18  64 CALM      30.24F
RIFLE          SUNNY     20   7  57 CALM      30.29F
DELTA          CLOUDY    28  16  59 E3        30.31F
NUCLA          SUNNY     25   9  50 CALM      30.29F
$$

COZ017>023-064>068-272000-
...SOUTHWEST COLORADO...

CITY           SKY/WX    TMP DP  RH WIND       PRES   REMARKS
DURANGO        SUNNY     21  11  65 CALM      30.20F
CORTEZ         SUNNY     27  10  49 VRB3      30.23F
PAGOSA SPRINGS SUNNY     19   8  62 CALM      30.16F
TELLURIDE      SUNNY     14   3  61 CALM      30.12F
WOLF CREEK PAS CLOUDY     5   3  92 MISG      30.00F
$$

COZ009-010-012-014-032>034-037-058>063-272000-
...CENTRAL COLORADO...

CITY           SKY/WX    TMP DP  RH WIND       PRES   REMARKS
ASPEN          SUNNY     14  -1  51 NW5       30.14F WCI   6
BUENA VISTA    NOT AVBL
COPPER MTN     PTSUNNY    5  -4  66 W9G17     29.94F HAZE    WCI  -9
BERTHOUD PASS  CLOUDY    -8 -13  77 MISG      29.88F
COTTONWOOD PAS SUNNY     18   1  49 W5        30.00F WCI  11
GUNNISON       SUNNY      3  -6  66 E5        30.21F WCI  -6
KREMMLING      CLOUDY    18   5  57 E5        30.17F WCI  11
LEADVILLE      SUNNY     10  -4  53 NW6       30.01F WCI   0
MONARCH PASS   CLOUDY    -2  -8  78 MISG      30.03F
SALIDA         SUNNY     17   8  67 NW8       30.17F WCI   7
SUNLIGHT       LGT SNOW N/A N/A N/A CALM      30.05F
WILKERSON PASS MOSUNNY    9   0  66 W8        29.94F WCI  -4
$$

COZ069>075-272000-
...SAN LUIS VALLEY/SANGRE DE CRISTO MOUNTAINS...

CITY           SKY/WX    TMP DP  RH WIND       PRES   REMARKS
ALAMOSA        SUNNY     18   6  59 CALM      30.14F
LA VETA PASS   NOT AVBL
SAGUACHE       SUNNY     19   3  49 NW7       30.13F WCI  10
$$

COZ035-036-038>040-272000-
...NORTHERN COLORADO FRONT RANGE...

CITY           SKY/WX    TMP DP  RH WIND       PRES   REMARKS
DENVER INTL AP SUNNY     25  10  53 S12       30.10F WCI  14
DMNS CITY PARK   N/A     27   7  42 SW7       30.08F WCI  19
AURORA         MOSUNNY   24  11  57 S8        30.10F WCI  15
FRONT RANGE AP SUNNY     28  12  50 S7        30.11F WCI  21
ERIE MUNI ARPT   N/A     26   9  48 S8        30.10F WCI  18
BOULDER MUN AP SUNNY     30  10  43 SE6       30.08F WCI  24
CENTENNIAL     MOSUNNY   21   8  57 S9        30.08F WCI  11
BROOMFIELD     SUNNY     27   9  46 SE9       30.10F WCI  17
FORT COLLINS   SUNNY     14  10  85 CALM      30.12F
LONGMONT       SUNNY     27  13  56 NW5       30.12F WCI  21
$$

COZ041-046-047-076>085-087-088-272000-
...PIKES PEAK/PALMER DIVIDE AND SOUTHERN FOOTHILLS...

CITY           SKY/WX    TMP DP  RH WIND       PRES   REMARKS
COLO. SPRINGS  MOSUNNY   24   9  52 SW8       30.11F WCI  15
A. F. ACADEMY  SUNNY     22   5  48 S13       30.07F WCI  10
ELLICOTT       NOT AVBL
FALCON         SUNNY     24   9  53 MISG      30.08F
FORT CARSON    SUNNY     25   9  50 S6        30.11F WCI  18
LIMON          SUNNY     22   8  55 NW6       30.13F WCI  14
MONUMENT HILL  SUNNY     21  10  63 SE8       30.03F WCI  12
TRINIDAD       SUNNY     20  11  68 SW3       30.15F
$$

COZ042>045-048>051-090-091-272000-
...NORTHEAST COLORADO...

CITY           SKY/WX    TMP DP  RH WIND       PRES   REMARKS
GREELEY ARPT   SUNNY      9   1  72 CALM      30.13F
AKRON          SUNNY     17  11  77 W5        30.13F WCI  10
BURLINGTON     SUNNY     24  13  62 NW16      30.17F WCI  11
WRAY           SUNNY     28  14  54 W12       30.20F WCI  18
STERLING       SUNNY     18  10  73 SW10      30.17F WCI   6
HOLYOKE        SUNNY     30  16  55 W9        30.17F WCI  22
FORT MORGAN    SUNNY     16   7  69 W7        30.15F WCI   6
$$

COZ086-089-092>099-272000-
...SOUTHEAST COLORADO...

CITY           SKY/WX    TMP DP  RH WIND       PRES   REMARKS
PUEBLO         SUNNY     28  10  46 VRB6      30.17F WCI  22
LA JUNTA       SUNNY     26  16  65 W9        30.21F WCI  17
LAMAR          SUNNY     27  16  63 W10       30.23F WCI  17
SPRINGFIELD      N/A     29  14  53 NW7       30.20F WCI  22
$$



USA.gov is the U.S. government's official web portal to all federal, state and local government web resources and services.